Regional Weather Roundup
Issued by NWS

Home | Current Version | Previous Version | Text Only | Print | Product List | Glossary Off
Versions: 1 2 3 4 5 6 7 8 9 10 11 12 13 14 15 16 17 18 19 20 21 22 23 24 25 26 27 28 29 30 31 32 33 34 35 36 37 38 39 40 41 42 43 44 45 46 47 48 49 50

000
ASUS45 KBOU 261907
RWRCO

WEATHER ROUNDUP FOR COLORADO
NATIONAL WEATHER SERVICE DENVER/BOULDER CO
100 PM MDT TUE AUG 26 2014

NOTE: "FAIR" INDICATES FEW OR NO CLOUDS BELOW 12000 FEET WITH NO
SIGNIFICANT WEATHER AND/OR OBSTRUCTIONS TO VISIBILITY.

COZ001>005-013-030-031-262000-
...NORTHWEST COLORADO...

CITY           SKY/WX    TMP DP  RH WIND       PRES   REMARKS
CRAIG          PTSUNNY   66  50  56 NE5       30.28F
HAYDEN         PTSUNNY   64  48  55 NE6       30.30F
MEEKER         PTSUNNY   63  50  62 S7        30.30R THUNDER
MOUNT WERNER   NOT AVBL
STEAMBOAT SPGS PTSUNNY   66  44  45 SE5       30.31F
WALDEN         PTSUNNY   63  41  45 W3        30.38F
$$

COZ006>008-011-262000-
...WEST CENTRAL VALLEYS...

CITY           SKY/WX    TMP DP  RH WIND       PRES   REMARKS
GRAND JUNCTION PTSUNNY   71  53  52 S5        30.18S
MONTROSE       PTSUNNY   80  43  26 VRB3      30.22F
EAGLE          NOT AVBL
RIFLE          TSTM      61  53  75 W22G36    30.26R
DELTA          PTSUNNY   83  45  25 SW6       30.17F
NUCLA          PTSUNNY   79  41  25 W16       30.27S
$$

COZ017>023-064>068-262000-
...SOUTHWEST COLORADO...

CITY           SKY/WX    TMP DP  RH WIND       PRES   REMARKS
DURANGO        PTSUNNY   69  45  41 NE8       30.33F
CORTEZ         MOSUNNY   81  46  29 SW13G20   30.24F
PAGOSA SPRINGS LGT RAIN  64  47  52 W8        30.41S
TELLURIDE      CLOUDY    66  37  34 SE3       30.43F
WOLF CREEK PAS   N/A     45  41  87 SW13G18   30.64F
$$

COZ009-010-012-014-032>034-037-058>063-262000-
...CENTRAL COLORADO...

CITY           SKY/WX    TMP DP  RH WIND       PRES   REMARKS
ASPEN          MOSUNNY   71  41  33 SE9       30.33F
BUENA VISTA    RAIN      65  49  57 S5        30.40S
COPPER MTN     CLOUDY    54  34  47 S21       30.64S THUNDER
BERTHOUD PASS  PTSUNNY   46  45  93 N6        30.68F
COTTONWOOD PAS PTSUNNY   63  41  45 CALM      30.51F
GUNNISON       MOSUNNY   66  41  39 CALM      30.38F
KREMMLING      PTSUNNY   70  43  37 N13G25    30.34F
LEADVILLE      LGT RAIN  58  41  53 N12       30.50S
MONARCH PASS   CLOUDY    50  36  57 W5        30.75F
SALIDA         CLOUDY    65  50  57 SW5       30.44F
SUNLIGHT       CLOUDY    55  45  67 CALM      30.56F
WILKERSON PASS NOT AVBL
$$

COZ069>075-262000-
...SAN LUIS VALLEY/SANGRE DE CRISTO MOUNTAINS...

CITY           SKY/WX    TMP DP  RH WIND       PRES   REMARKS
ALAMOSA        MOSUNNY   74  44  34 NW8       30.33F
LA VETA PASS   NOT AVBL
SAGUACHE       NOT AVBL
$$

COZ035-036-038>040-262000-
...NORTHERN COLORADO FRONT RANGE...

CITY           SKY/WX    TMP DP  RH WIND       PRES   REMARKS
DENVER INTL AP PTSUNNY   75  58  55 VRB7      30.20F
DMNS CITY PARK   N/A     79  56  45 S5        30.19S
AURORA         PTSUNNY   76  57  52 SE8       30.21F
FRONT RANGE AP NOT AVBL
ERIE MUNI ARPT MOSUNNY   75  57  53 CALM      30.18F
BOULDER MUN AP PTSUNNY   70  55  60 CALM      30.20F
CENTENNIAL     PTSUNNY   75  54  47 SE9       30.22F
BROOMFIELD     PTSUNNY   75  55  50 N3        30.22F
FORT COLLINS   MOSUNNY   77  57  50 E7        30.20F
LONGMONT       MOSUNNY   75  56  51 CALM      30.20F
$$

COZ041-046-047-076>085-087-088-262000-
...PIKES PEAK/PALMER DIVIDE AND SOUTHERN FOOTHILLS...

CITY           SKY/WX    TMP DP  RH WIND       PRES   REMARKS
COLO. SPRINGS  PTSUNNY   68  56  65 S5        30.29F
A. F. ACADEMY  PTSUNNY   66  55  68 S8        30.30F
ELLICOTT       MOSUNNY   69  55  60 W6        30.26F
FALCON         MOSUNNY   66  55  68 SW6       30.33F
FORT CARSON    PTSUNNY   69  57  65 VRB2      30.26F
LIMON          PTSUNNY   72  58  61 VRB7      30.23F
MONUMENT HILL  MOSUNNY   68  54  60 S9        30.31S
TRINIDAD       MOSUNNY   74  55  51 E9        30.24F
$$

COZ042>045-048>051-090-091-262000-
...NORTHEAST COLORADO...

CITY           SKY/WX    TMP DP  RH WIND       PRES   REMARKS
GREELEY ARPT   MOSUNNY   79  55  44 NE6       30.18F
AKRON          MOSUNNY   75  59  57 SE10      30.20F
BURLINGTON     PTSUNNY   75  60  59 SE13      30.19F
WRAY             N/A     73  62  68 SE15      30.18S
STERLING       MOSUNNY   81  63  54 CALM      30.15F
HOLYOKE        PTSUNNY   79  63  57 SE9G18    30.17F
FORT MORGAN    MOSUNNY   75  57  52 SE3       30.19F
$$

COZ086-089-092>099-262000-
...SOUTHEAST COLORADO...

CITY           SKY/WX    TMP DP  RH WIND       PRES   REMARKS
PUEBLO         PTSUNNY   75  57  53 VRB7      30.19F
LA JUNTA       MOSUNNY   75  58  55 NW5       30.18F
LAMAR          MOSUNNY   85  57  38 S8        30.13F
SPRINGFIELD      N/A     88  55  32 S9G17     30.16F
$$


USA.gov is the U.S. government's official web portal to all federal, state and local government web resources and services.